Data supplied by UK-AIR on 31/3/2016
All Data GMT hour ending 
Status: R =Ratified P=Provisional,P*=As supplied
,,Strathvaich,,,,,,,,,,,,,,,,,,,,,,,
Date,time,"Ozone",status,unit
 
01-01-2015,01:00,80.55976,R,ugm-3
01-01-2015,02:00,,,
01-01-2015,03:00,80.37682,R,ugm-3
01-01-2015,04:00,83.07101,R,ugm-3
01-01-2015,05:00,83.96908,R,ugm-3
01-01-2015,06:00,81.87359,R,ugm-3
01-01-2015,07:00,81.22499,R,ugm-3
01-01-2015,08:00,81.47445,R,ugm-3
01-01-2015,09:00,83.66972,R,ugm-3
01-01-2015,10:00,75.88649,R,ugm-3
01-01-2015,11:00,69.45036,R,ugm-3
01-01-2015,12:00,71.44606,R,ugm-3
01-01-2015,13:00,69.60004,R,ugm-3
01-01-2015,14:00,68.95144,R,ugm-3
01-01-2015,15:00,74.93854,R,ugm-3
01-01-2015,16:00,77.43316,R,ugm-3
01-01-2015,17:00,82.02327,R,ugm-3
01-01-2015,18:00,82.87144,R,ugm-3
01-01-2015,19:00,82.52220,R,ugm-3
01-01-2015,20:00,83.27058,R,ugm-3
01-01-2015,21:00,83.76951,R,ugm-3
01-01-2015,22:00,87.46155,R,ugm-3
01-01-2015,23:00,86.86284,R,ugm-3
01-01-2015,24:00,85.76521,R,ugm-3
02-01-2015,01:00,86.54686,R,ugm-3
02-01-2015,02:00,,,
02-01-2015,03:00,82.12306,R,ugm-3
02-01-2015,04:00,83.02112,R,ugm-3
02-01-2015,05:00,82.27273,R,ugm-3
02-01-2015,06:00,78.18155,R,ugm-3
02-01-2015,07:00,79.22929,R,ugm-3
02-01-2015,08:00,81.52435,R,ugm-3
02-01-2015,09:00,81.22499,R,ugm-3
02-01-2015,10:00,79.32908,R,ugm-3
02-01-2015,11:00,78.43101,R,ugm-3
02-01-2015,12:00,83.47015,R,ugm-3
02-01-2015,13:00,87.16220,R,ugm-3
02-01-2015,14:00,85.41596,R,ugm-3
02-01-2015,15:00,87.41166,R,ugm-3
02-01-2015,16:00,85.16650,R,ugm-3
02-01-2015,17:00,84.26843,R,ugm-3
02-01-2015,18:00,83.81940,R,ugm-3
02-01-2015,19:00,85.11661,R,ugm-3
02-01-2015,20:00,83.66972,R,ugm-3
02-01-2015,21:00,78.73037,R,ugm-3
02-01-2015,22:00,85.36607,R,ugm-3
02-01-2015,23:00,85.56564,R,ugm-3
02-01-2015,24:00,86.36392,R,ugm-3
03-01-2015,01:00,86.14772,R,ugm-3
03-01-2015,02:00,,,
03-01-2015,03:00,84.76736,R,ugm-3
03-01-2015,04:00,86.06456,R,ugm-3
03-01-2015,05:00,86.91274,R,ugm-3
03-01-2015,06:00,86.61338,R,ugm-3
03-01-2015,07:00,86.51360,R,ugm-3
03-01-2015,08:00,86.41381,R,ugm-3
03-01-2015,09:00,86.06456,R,ugm-3
03-01-2015,10:00,87.11231,R,ugm-3
03-01-2015,11:00,86.66327,R,ugm-3
03-01-2015,12:00,86.46370,R,ugm-3
03-01-2015,13:00,86.66327,R,ugm-3
03-01-2015,14:00,86.41381,R,ugm-3
03-01-2015,15:00,85.86499,R,ugm-3
03-01-2015,16:00,85.36607,R,ugm-3
03-01-2015,17:00,85.96478,R,ugm-3
03-01-2015,18:00,86.41381,R,ugm-3
03-01-2015,19:00,86.21424,R,ugm-3
03-01-2015,20:00,87.11231,R,ugm-3
03-01-2015,21:00,87.21209,R,ugm-3
03-01-2015,22:00,86.16435,R,ugm-3
03-01-2015,23:00,84.16865,R,ugm-3
03-01-2015,24:00,81.87359,R,ugm-3
04-01-2015,01:00,72.24434,R,ugm-3
04-01-2015,02:00,,,
04-01-2015,03:00,82.07316,R,ugm-3
04-01-2015,04:00,79.47875,R,ugm-3
04-01-2015,05:00,83.12091,R,ugm-3
04-01-2015,06:00,80.42671,R,ugm-3
04-01-2015,07:00,83.02112,R,ugm-3
04-01-2015,08:00,83.81940,R,ugm-3
04-01-2015,09:00,83.17080,R,ugm-3
04-01-2015,10:00,79.92779,R,ugm-3
04-01-2015,11:00,79.72822,R,ugm-3
04-01-2015,12:00,76.53510,R,ugm-3
04-01-2015,13:00,78.68047,R,ugm-3
04-01-2015,14:00,81.32478,R,ugm-3
04-01-2015,15:00,81.52435,R,ugm-3
04-01-2015,16:00,80.32693,R,ugm-3
04-01-2015,17:00,72.99273,R,ugm-3
04-01-2015,18:00,77.08391,R,ugm-3
04-01-2015,19:00,76.68477,R,ugm-3
04-01-2015,20:00,78.13166,R,ugm-3
04-01-2015,21:00,79.32908,R,ugm-3
04-01-2015,22:00,80.37682,R,ugm-3
04-01-2015,23:00,77.83230,R,ugm-3
04-01-2015,24:00,65.70842,R,ugm-3
05-01-2015,01:00,73.30871,R,ugm-3
05-01-2015,02:00,,,
05-01-2015,03:00,73.14241,R,ugm-3
05-01-2015,04:00,71.44606,R,ugm-3
05-01-2015,05:00,73.64133,R,ugm-3
05-01-2015,06:00,76.03617,R,ugm-3
05-01-2015,07:00,78.08176,R,ugm-3
05-01-2015,08:00,80.67617,R,ugm-3
05-01-2015,09:00,79.57854,R,ugm-3
05-01-2015,10:00,78.88004,R,ugm-3
05-01-2015,11:00,80.67617,R,ugm-3
05-01-2015,12:00,81.32478,R,ugm-3
05-01-2015,13:00,81.32478,R,ugm-3
05-01-2015,14:00,81.27488,R,ugm-3
05-01-2015,15:00,80.27703,R,ugm-3
05-01-2015,16:00,78.92994,R,ugm-3
05-01-2015,17:00,75.23789,R,ugm-3
05-01-2015,18:00,68.75187,R,ugm-3
05-01-2015,19:00,64.56090,R,ugm-3
05-01-2015,20:00,65.05982,R,ugm-3
05-01-2015,21:00,62.36563,R,ugm-3
05-01-2015,22:00,61.01853,R,ugm-3
05-01-2015,23:00,57.57595,R,ugm-3
05-01-2015,24:00,56.12906,R,ugm-3
06-01-2015,01:00,54.48261,R,ugm-3
06-01-2015,02:00,63.99545,R,ugm-3
06-01-2015,03:00,65.75832,R,ugm-3
06-01-2015,04:00,65.35918,R,ugm-3
06-01-2015,05:00,78.83015,R,ugm-3
06-01-2015,06:00,81.72392,R,ugm-3
06-01-2015,07:00,83.32048,R,ugm-3
06-01-2015,08:00,84.81725,R,ugm-3
06-01-2015,09:00,83.22069,R,ugm-3
06-01-2015,10:00,81.12521,R,ugm-3
06-01-2015,11:00,79.97768,R,ugm-3
06-01-2015,12:00,79.42886,R,ugm-3
06-01-2015,13:00,80.92564,R,ugm-3
06-01-2015,14:00,81.02542,R,ugm-3
06-01-2015,15:00,80.77596,R,ugm-3
06-01-2015,16:00,79.17940,R,ugm-3
06-01-2015,17:00,77.08391,R,ugm-3
06-01-2015,18:00,73.74112,R,ugm-3
06-01-2015,19:00,70.14886,R,ugm-3
06-01-2015,20:00,76.13596,R,ugm-3
06-01-2015,21:00,69.69982,R,ugm-3
06-01-2015,22:00,78.28133,R,ugm-3
06-01-2015,23:00,77.28348,R,ugm-3
06-01-2015,24:00,70.09896,R,ugm-3
07-01-2015,01:00,68.18642,R,ugm-3
07-01-2015,02:00,,,
07-01-2015,03:00,67.15531,R,ugm-3
07-01-2015,04:00,64.41122,R,ugm-3
07-01-2015,05:00,63.86240,R,ugm-3
07-01-2015,06:00,63.36348,R,ugm-3
07-01-2015,07:00,62.51530,R,ugm-3
07-01-2015,08:00,63.36348,R,ugm-3
07-01-2015,09:00,62.61509,R,ugm-3
07-01-2015,10:00,65.40907,R,ugm-3
07-01-2015,11:00,73.29208,R,ugm-3
07-01-2015,12:00,73.69122,R,ugm-3
07-01-2015,13:00,74.43961,R,ugm-3
07-01-2015,14:00,79.87789,R,ugm-3
07-01-2015,15:00,81.07531,R,ugm-3
07-01-2015,16:00,81.12521,R,ugm-3
07-01-2015,17:00,74.48950,R,ugm-3
07-01-2015,18:00,81.52435,R,ugm-3
07-01-2015,19:00,85.26628,R,ugm-3
07-01-2015,20:00,85.41596,R,ugm-3
07-01-2015,21:00,85.01682,R,ugm-3
07-01-2015,22:00,79.87789,R,ugm-3
07-01-2015,23:00,78.28133,R,ugm-3
07-01-2015,24:00,76.73467,R,ugm-3
08-01-2015,01:00,75.63703,R,ugm-3
08-01-2015,02:00,,,
08-01-2015,03:00,76.53510,R,ugm-3
08-01-2015,04:00,77.38327,R,ugm-3
08-01-2015,05:00,82.47230,R,ugm-3
08-01-2015,06:00,83.42026,R,ugm-3
08-01-2015,07:00,82.72177,R,ugm-3
08-01-2015,08:00,82.12306,R,ugm-3
08-01-2015,09:00,82.77166,R,ugm-3
08-01-2015,10:00,82.67187,R,ugm-3
08-01-2015,11:00,84.26843,R,ugm-3
08-01-2015,12:00,82.57209,R,ugm-3
08-01-2015,13:00,79.97768,R,ugm-3
08-01-2015,14:00,78.48090,R,ugm-3
08-01-2015,15:00,77.78241,R,ugm-3
08-01-2015,16:00,76.33553,R,ugm-3
08-01-2015,17:00,76.13596,R,ugm-3
08-01-2015,18:00,75.23789,R,ugm-3
08-01-2015,19:00,78.03187,R,ugm-3
08-01-2015,20:00,75.48735,R,ugm-3
08-01-2015,21:00,75.93639,R,ugm-3
08-01-2015,22:00,74.19015,R,ugm-3
08-01-2015,23:00,70.74757,R,ugm-3
08-01-2015,24:00,75.78671,R,ugm-3
09-01-2015,01:00,84.28506,R,ugm-3
09-01-2015,02:00,,,
09-01-2015,03:00,80.75933,R,ugm-3
09-01-2015,04:00,79.17940,R,ugm-3
09-01-2015,05:00,77.73252,R,ugm-3
09-01-2015,06:00,78.18155,R,ugm-3
09-01-2015,07:00,82.07316,R,ugm-3
09-01-2015,08:00,82.07316,R,ugm-3
09-01-2015,09:00,84.01897,R,ugm-3
09-01-2015,10:00,84.16865,R,ugm-3
09-01-2015,11:00,86.16435,R,ugm-3
09-01-2015,12:00,85.91489,R,ugm-3
09-01-2015,13:00,84.51790,R,ugm-3
09-01-2015,14:00,83.07101,R,ugm-3
09-01-2015,15:00,76.73467,R,ugm-3
09-01-2015,16:00,73.14241,R,ugm-3
09-01-2015,17:00,70.24864,R,ugm-3
09-01-2015,18:00,69.69982,R,ugm-3
09-01-2015,19:00,69.50025,R,ugm-3
09-01-2015,20:00,68.50240,R,ugm-3
09-01-2015,21:00,75.48735,R,ugm-3
09-01-2015,22:00,80.02757,R,ugm-3
09-01-2015,23:00,85.46585,R,ugm-3
09-01-2015,24:00,79.22929,R,ugm-3
10-01-2015,01:00,81.75718,R,ugm-3
10-01-2015,02:00,,,
10-01-2015,03:00,86.01467,R,ugm-3
10-01-2015,04:00,90.45510,R,ugm-3
10-01-2015,05:00,87.26198,R,ugm-3
10-01-2015,06:00,83.96908,R,ugm-3
10-01-2015,07:00,82.27273,R,ugm-3
10-01-2015,08:00,82.47230,R,ugm-3
10-01-2015,09:00,86.81295,R,ugm-3
10-01-2015,10:00,81.47445,R,ugm-3
10-01-2015,11:00,80.02757,R,ugm-3
10-01-2015,12:00,78.83015,R,ugm-3
10-01-2015,13:00,80.07746,R,ugm-3
10-01-2015,14:00,83.61983,R,ugm-3
10-01-2015,15:00,82.87144,R,ugm-3
10-01-2015,16:00,83.17080,R,ugm-3
10-01-2015,17:00,82.17295,R,ugm-3
10-01-2015,18:00,81.02542,R,ugm-3
10-01-2015,19:00,80.62628,R,ugm-3
10-01-2015,20:00,79.67832,R,ugm-3
10-01-2015,21:00,78.68047,R,ugm-3
10-01-2015,22:00,78.23144,R,ugm-3
10-01-2015,23:00,78.78026,R,ugm-3
10-01-2015,24:00,77.98198,R,ugm-3
11-01-2015,01:00,76.36879,R,ugm-3
11-01-2015,02:00,,,
11-01-2015,03:00,78.63058,R,ugm-3
11-01-2015,04:00,79.47875,R,ugm-3
11-01-2015,05:00,81.32478,R,ugm-3
11-01-2015,06:00,85.16650,R,ugm-3
11-01-2015,07:00,85.46585,R,ugm-3
11-01-2015,08:00,84.76736,R,ugm-3
11-01-2015,09:00,85.66542,R,ugm-3
11-01-2015,10:00,87.71102,R,ugm-3
11-01-2015,11:00,84.86714,R,ugm-3
11-01-2015,12:00,82.82155,R,ugm-3
11-01-2015,13:00,81.77381,R,ugm-3
11-01-2015,14:00,84.81725,R,ugm-3
11-01-2015,15:00,88.20994,R,ugm-3
11-01-2015,16:00,88.60908,R,ugm-3
11-01-2015,17:00,88.20994,R,ugm-3
11-01-2015,18:00,87.96048,R,ugm-3
11-01-2015,19:00,89.05811,R,ugm-3
11-01-2015,20:00,89.60693,R,ugm-3
11-01-2015,21:00,89.25768,R,ugm-3
11-01-2015,22:00,88.65897,R,ugm-3
11-01-2015,23:00,87.46155,R,ugm-3
11-01-2015,24:00,87.66112,R,ugm-3
12-01-2015,01:00,88.47603,R,ugm-3
12-01-2015,02:00,,,
12-01-2015,03:00,85.26628,R,ugm-3
12-01-2015,04:00,84.01897,R,ugm-3
12-01-2015,05:00,83.76951,R,ugm-3
12-01-2015,06:00,90.15575,R,ugm-3
12-01-2015,07:00,88.75876,R,ugm-3
12-01-2015,08:00,89.20779,R,ugm-3
12-01-2015,09:00,85.56564,R,ugm-3
12-01-2015,10:00,83.12091,R,ugm-3
12-01-2015,11:00,82.57209,R,ugm-3
12-01-2015,12:00,81.37467,R,ugm-3
12-01-2015,13:00,82.97123,R,ugm-3
12-01-2015,14:00,85.96478,R,ugm-3
12-01-2015,15:00,82.62198,R,ugm-3
12-01-2015,16:00,83.66972,R,ugm-3
12-01-2015,17:00,82.02327,R,ugm-3
12-01-2015,18:00,78.33123,R,ugm-3
12-01-2015,19:00,77.98198,R,ugm-3
12-01-2015,20:00,76.58499,R,ugm-3
12-01-2015,21:00,79.77811,R,ugm-3
12-01-2015,22:00,82.42241,R,ugm-3
12-01-2015,23:00,81.62413,R,ugm-3
12-01-2015,24:00,81.17510,R,ugm-3
13-01-2015,01:00,81.15847,R,ugm-3
13-01-2015,02:00,,,
13-01-2015,03:00,,,
13-01-2015,04:00,,,
13-01-2015,05:00,,,
13-01-2015,06:00,,,
13-01-2015,07:00,,,
13-01-2015,08:00,,,
13-01-2015,09:00,,,
13-01-2015,10:00,,,
13-01-2015,11:00,,,
13-01-2015,12:00,,,
13-01-2015,13:00,,,
13-01-2015,14:00,,,
13-01-2015,15:00,,,
13-01-2015,16:00,84.51790,R,ugm-3
13-01-2015,17:00,83.61983,R,ugm-3
13-01-2015,18:00,80.37682,R,ugm-3
13-01-2015,19:00,81.07531,R,ugm-3
13-01-2015,20:00,85.41596,R,ugm-3
13-01-2015,21:00,86.26413,R,ugm-3
13-01-2015,22:00,86.86284,R,ugm-3
13-01-2015,23:00,86.61338,R,ugm-3
13-01-2015,24:00,84.11876,R,ugm-3
14-01-2015,01:00,81.69065,R,ugm-3
14-01-2015,02:00,,,
14-01-2015,03:00,79.37897,R,ugm-3
14-01-2015,04:00,81.22499,R,ugm-3
14-01-2015,05:00,81.27488,R,ugm-3
14-01-2015,06:00,80.77596,R,ugm-3
14-01-2015,07:00,81.07531,R,ugm-3
14-01-2015,08:00,83.12091,R,ugm-3
14-01-2015,09:00,81.22499,R,ugm-3
14-01-2015,10:00,77.93209,R,ugm-3
14-01-2015,11:00,77.58284,R,ugm-3
14-01-2015,12:00,76.73467,R,ugm-3
14-01-2015,13:00,78.78026,R,ugm-3
14-01-2015,14:00,81.52435,R,ugm-3
14-01-2015,15:00,81.82370,R,ugm-3
14-01-2015,16:00,81.87359,R,ugm-3
14-01-2015,17:00,77.63273,R,ugm-3
14-01-2015,18:00,74.83875,R,ugm-3
14-01-2015,19:00,74.48950,R,ugm-3
14-01-2015,20:00,75.28778,R,ugm-3
14-01-2015,21:00,72.89294,R,ugm-3
14-01-2015,22:00,70.44821,R,ugm-3
14-01-2015,23:00,70.04907,R,ugm-3
14-01-2015,24:00,69.00133,R,ugm-3
15-01-2015,01:00,68.05337,R,ugm-3
15-01-2015,02:00,66.78943,R,ugm-3
15-01-2015,03:00,74.38972,R,ugm-3
15-01-2015,04:00,84.26843,R,ugm-3
15-01-2015,05:00,79.37897,R,ugm-3
15-01-2015,06:00,77.53295,R,ugm-3
15-01-2015,07:00,77.03402,R,ugm-3
15-01-2015,08:00,76.63488,R,ugm-3
15-01-2015,09:00,79.02972,R,ugm-3
15-01-2015,10:00,81.17510,R,ugm-3
15-01-2015,11:00,85.66542,R,ugm-3
15-01-2015,12:00,84.16865,R,ugm-3
15-01-2015,13:00,75.88649,R,ugm-3
15-01-2015,14:00,74.48950,R,ugm-3
15-01-2015,15:00,81.92349,R,ugm-3
15-01-2015,16:00,91.85209,R,ugm-3
15-01-2015,17:00,89.75661,R,ugm-3
15-01-2015,18:00,88.95833,R,ugm-3
15-01-2015,19:00,86.61338,R,ugm-3
15-01-2015,20:00,77.08391,R,ugm-3
15-01-2015,21:00,67.00563,R,ugm-3
15-01-2015,22:00,66.10756,R,ugm-3
15-01-2015,23:00,66.30713,R,ugm-3
15-01-2015,24:00,66.90584,R,ugm-3
16-01-2015,01:00,69.11774,R,ugm-3
16-01-2015,02:00,,,
16-01-2015,03:00,81.42456,R,ugm-3
16-01-2015,04:00,82.67187,R,ugm-3
16-01-2015,05:00,85.11661,R,ugm-3
16-01-2015,06:00,84.81725,R,ugm-3
16-01-2015,07:00,84.86714,R,ugm-3
16-01-2015,08:00,85.06671,R,ugm-3
16-01-2015,09:00,84.16865,R,ugm-3
16-01-2015,10:00,84.76736,R,ugm-3
16-01-2015,11:00,85.91489,R,ugm-3
16-01-2015,12:00,86.91274,R,ugm-3
16-01-2015,13:00,86.06456,R,ugm-3
16-01-2015,14:00,84.56779,R,ugm-3
16-01-2015,15:00,85.41596,R,ugm-3
16-01-2015,16:00,85.11661,R,ugm-3
16-01-2015,17:00,84.81725,R,ugm-3
16-01-2015,18:00,84.86714,R,ugm-3
16-01-2015,19:00,85.01682,R,ugm-3
16-01-2015,20:00,85.21639,R,ugm-3
16-01-2015,21:00,84.86714,R,ugm-3
16-01-2015,22:00,84.31833,R,ugm-3
16-01-2015,23:00,84.61768,R,ugm-3
16-01-2015,24:00,84.66757,R,ugm-3
17-01-2015,01:00,84.75073,R,ugm-3
17-01-2015,02:00,,,
17-01-2015,03:00,84.21854,R,ugm-3
17-01-2015,04:00,83.37037,R,ugm-3
17-01-2015,05:00,83.96908,R,ugm-3
17-01-2015,06:00,84.26843,R,ugm-3
17-01-2015,07:00,83.91919,R,ugm-3
17-01-2015,08:00,83.37037,R,ugm-3
17-01-2015,09:00,82.67187,R,ugm-3
17-01-2015,10:00,81.82370,R,ugm-3
17-01-2015,11:00,83.07101,R,ugm-3
17-01-2015,12:00,84.16865,R,ugm-3
17-01-2015,13:00,84.41811,R,ugm-3
17-01-2015,14:00,83.61983,R,ugm-3
17-01-2015,15:00,83.02112,R,ugm-3
17-01-2015,16:00,84.06886,R,ugm-3
17-01-2015,17:00,82.82155,R,ugm-3
17-01-2015,18:00,81.02542,R,ugm-3
17-01-2015,19:00,79.92779,R,ugm-3
17-01-2015,20:00,78.78026,R,ugm-3
17-01-2015,21:00,77.68262,R,ugm-3
17-01-2015,22:00,76.83445,R,ugm-3
17-01-2015,23:00,78.28133,R,ugm-3
17-01-2015,24:00,78.73037,R,ugm-3
18-01-2015,01:00,80.22714,R,ugm-3
18-01-2015,02:00,,,
18-01-2015,03:00,77.78241,R,ugm-3
18-01-2015,04:00,77.33338,R,ugm-3
18-01-2015,05:00,78.73037,R,ugm-3
18-01-2015,06:00,81.47445,R,ugm-3
18-01-2015,07:00,83.96908,R,ugm-3
18-01-2015,08:00,84.11876,R,ugm-3
18-01-2015,09:00,84.51790,R,ugm-3
18-01-2015,10:00,85.66542,R,ugm-3
18-01-2015,11:00,88.60908,R,ugm-3
18-01-2015,12:00,89.00822,R,ugm-3
18-01-2015,13:00,86.86284,R,ugm-3
18-01-2015,14:00,84.61768,R,ugm-3
18-01-2015,15:00,88.35962,R,ugm-3
18-01-2015,16:00,86.26413,R,ugm-3
18-01-2015,17:00,83.71962,R,ugm-3
18-01-2015,18:00,83.12091,R,ugm-3
18-01-2015,19:00,82.82155,R,ugm-3
18-01-2015,20:00,82.82155,R,ugm-3
18-01-2015,21:00,82.52220,R,ugm-3
18-01-2015,22:00,82.67187,R,ugm-3
18-01-2015,23:00,83.76951,R,ugm-3
18-01-2015,24:00,83.66972,R,ugm-3
19-01-2015,01:00,83.95245,R,ugm-3
19-01-2015,02:00,,,
19-01-2015,03:00,81.72392,R,ugm-3
19-01-2015,04:00,82.92134,R,ugm-3
19-01-2015,05:00,84.01897,R,ugm-3
19-01-2015,06:00,83.61983,R,ugm-3
19-01-2015,07:00,83.32048,R,ugm-3
19-01-2015,08:00,83.61983,R,ugm-3
19-01-2015,09:00,82.72177,R,ugm-3
19-01-2015,10:00,83.66972,R,ugm-3
19-01-2015,11:00,83.52005,R,ugm-3
19-01-2015,12:00,83.56994,R,ugm-3
19-01-2015,13:00,84.86714,R,ugm-3
19-01-2015,14:00,83.81940,R,ugm-3
19-01-2015,15:00,82.97123,R,ugm-3
19-01-2015,16:00,83.61983,R,ugm-3
19-01-2015,17:00,84.46800,R,ugm-3
19-01-2015,18:00,84.31833,R,ugm-3
19-01-2015,19:00,85.16650,R,ugm-3
19-01-2015,20:00,85.36607,R,ugm-3
19-01-2015,21:00,84.71747,R,ugm-3
19-01-2015,22:00,83.42026,R,ugm-3
19-01-2015,23:00,81.52435,R,ugm-3
19-01-2015,24:00,80.72607,R,ugm-3
20-01-2015,01:00,80.75933,R,ugm-3
20-01-2015,02:00,,,
20-01-2015,03:00,79.17940,R,ugm-3
20-01-2015,04:00,77.68262,R,ugm-3
20-01-2015,05:00,76.28563,R,ugm-3
20-01-2015,06:00,74.88864,R,ugm-3
20-01-2015,07:00,75.78671,R,ugm-3
20-01-2015,08:00,74.98843,R,ugm-3
20-01-2015,09:00,74.83875,R,ugm-3
20-01-2015,10:00,74.38972,R,ugm-3
20-01-2015,11:00,73.44176,R,ugm-3
20-01-2015,12:00,73.34198,R,ugm-3
20-01-2015,13:00,73.24219,R,ugm-3
20-01-2015,14:00,72.04477,R,ugm-3
20-01-2015,15:00,71.99488,R,ugm-3
20-01-2015,16:00,71.24649,R,ugm-3
20-01-2015,17:00,71.69552,R,ugm-3
20-01-2015,18:00,70.79746,R,ugm-3
20-01-2015,19:00,70.49810,R,ugm-3
20-01-2015,20:00,69.50025,R,ugm-3
20-01-2015,21:00,70.49810,R,ugm-3
20-01-2015,22:00,70.34843,R,ugm-3
20-01-2015,23:00,71.44606,R,ugm-3
20-01-2015,24:00,72.04477,R,ugm-3
21-01-2015,01:00,70.51473,R,ugm-3
21-01-2015,02:00,69.11774,R,ugm-3
21-01-2015,03:00,68.80176,R,ugm-3
21-01-2015,04:00,69.60004,R,ugm-3
21-01-2015,05:00,68.85165,R,ugm-3
21-01-2015,06:00,70.34843,R,ugm-3
21-01-2015,07:00,70.19875,R,ugm-3
21-01-2015,08:00,71.54585,R,ugm-3
21-01-2015,09:00,72.64348,R,ugm-3
21-01-2015,10:00,72.09466,R,ugm-3
21-01-2015,11:00,71.49595,R,ugm-3
21-01-2015,12:00,72.34413,R,ugm-3
21-01-2015,13:00,73.19230,R,ugm-3
21-01-2015,14:00,71.74542,R,ugm-3
21-01-2015,15:00,70.69767,R,ugm-3
21-01-2015,16:00,69.30068,R,ugm-3
21-01-2015,17:00,68.05337,R,ugm-3
21-01-2015,18:00,67.30498,R,ugm-3
21-01-2015,19:00,65.70842,R,ugm-3
21-01-2015,20:00,64.61079,R,ugm-3
21-01-2015,21:00,64.66068,R,ugm-3
21-01-2015,22:00,63.96219,R,ugm-3
21-01-2015,23:00,64.56090,R,ugm-3
21-01-2015,24:00,62.96434,R,ugm-3
22-01-2015,01:00,62.59846,R,ugm-3
22-01-2015,02:00,,,
22-01-2015,03:00,62.86455,R,ugm-3
22-01-2015,04:00,63.31358,R,ugm-3
22-01-2015,05:00,63.96219,R,ugm-3
22-01-2015,06:00,61.76692,R,ugm-3
22-01-2015,07:00,62.36563,R,ugm-3
22-01-2015,08:00,61.41767,R,ugm-3
22-01-2015,09:00,63.26369,R,ugm-3
22-01-2015,10:00,62.61509,R,ugm-3
22-01-2015,11:00,61.46756,R,ugm-3
22-01-2015,12:00,64.01208,R,ugm-3
22-01-2015,13:00,63.91229,R,ugm-3
22-01-2015,14:00,67.25509,R,ugm-3
22-01-2015,15:00,67.20520,R,ugm-3
22-01-2015,16:00,67.50455,R,ugm-3
22-01-2015,17:00,63.86240,R,ugm-3
22-01-2015,18:00,64.11186,R,ugm-3
22-01-2015,19:00,67.00563,R,ugm-3
22-01-2015,20:00,72.94284,R,ugm-3
22-01-2015,21:00,80.92564,R,ugm-3
22-01-2015,22:00,84.16865,R,ugm-3
22-01-2015,23:00,85.91489,R,ugm-3
22-01-2015,24:00,87.01252,R,ugm-3
23-01-2015,01:00,85.94815,R,ugm-3
23-01-2015,02:00,,,
23-01-2015,03:00,83.07101,R,ugm-3
23-01-2015,04:00,82.47230,R,ugm-3
23-01-2015,05:00,82.47230,R,ugm-3
23-01-2015,06:00,80.32693,R,ugm-3
23-01-2015,07:00,78.53080,R,ugm-3
23-01-2015,08:00,75.83660,R,ugm-3
23-01-2015,09:00,79.77811,R,ugm-3
23-01-2015,10:00,81.97338,R,ugm-3
23-01-2015,11:00,77.03402,R,ugm-3
23-01-2015,12:00,79.72822,R,ugm-3
23-01-2015,13:00,90.00607,R,ugm-3
23-01-2015,14:00,88.16005,R,ugm-3
23-01-2015,15:00,83.96908,R,ugm-3
23-01-2015,16:00,83.02112,R,ugm-3
23-01-2015,17:00,84.01897,R,ugm-3
23-01-2015,18:00,85.46585,R,ugm-3
23-01-2015,19:00,85.11661,R,ugm-3
23-01-2015,20:00,84.86714,R,ugm-3
23-01-2015,21:00,85.86499,R,ugm-3
23-01-2015,22:00,86.36392,R,ugm-3
23-01-2015,23:00,86.21424,R,ugm-3
23-01-2015,24:00,86.86284,R,ugm-3
24-01-2015,01:00,84.88377,R,ugm-3
24-01-2015,02:00,,,
24-01-2015,03:00,89.15790,R,ugm-3
24-01-2015,04:00,89.10801,R,ugm-3
24-01-2015,05:00,89.45725,R,ugm-3
24-01-2015,06:00,87.91059,R,ugm-3
24-01-2015,07:00,86.51360,R,ugm-3
24-01-2015,08:00,86.41381,R,ugm-3
24-01-2015,09:00,87.86069,R,ugm-3
24-01-2015,10:00,88.45940,R,ugm-3
24-01-2015,11:00,87.81080,R,ugm-3
24-01-2015,12:00,87.86069,R,ugm-3
24-01-2015,13:00,86.26413,R,ugm-3
24-01-2015,14:00,86.21424,R,ugm-3
24-01-2015,15:00,85.81510,R,ugm-3
24-01-2015,16:00,86.41381,R,ugm-3
24-01-2015,17:00,86.36392,R,ugm-3
24-01-2015,18:00,85.71532,R,ugm-3
24-01-2015,19:00,85.21639,R,ugm-3
24-01-2015,20:00,84.91704,R,ugm-3
24-01-2015,21:00,84.71747,R,ugm-3
24-01-2015,22:00,85.31618,R,ugm-3
24-01-2015,23:00,87.06241,R,ugm-3
24-01-2015,24:00,87.71102,R,ugm-3
25-01-2015,01:00,88.54256,R,ugm-3
25-01-2015,02:00,,,
25-01-2015,03:00,87.36177,R,ugm-3
25-01-2015,04:00,85.56564,R,ugm-3
25-01-2015,05:00,85.11661,R,ugm-3
25-01-2015,06:00,85.31618,R,ugm-3
25-01-2015,07:00,84.31833,R,ugm-3
25-01-2015,08:00,82.47230,R,ugm-3
25-01-2015,09:00,80.67617,R,ugm-3
25-01-2015,10:00,78.63058,R,ugm-3
25-01-2015,11:00,77.78241,R,ugm-3
25-01-2015,12:00,76.33553,R,ugm-3
25-01-2015,13:00,74.88864,R,ugm-3
25-01-2015,14:00,76.03617,R,ugm-3
25-01-2015,15:00,76.58499,R,ugm-3
25-01-2015,16:00,77.68262,R,ugm-3
25-01-2015,17:00,86.01467,R,ugm-3
25-01-2015,18:00,94.24693,R,ugm-3
25-01-2015,19:00,92.45080,R,ugm-3
25-01-2015,20:00,87.96048,R,ugm-3
25-01-2015,21:00,85.86499,R,ugm-3
25-01-2015,22:00,86.81295,R,ugm-3
25-01-2015,23:00,86.11446,R,ugm-3
25-01-2015,24:00,89.05811,R,ugm-3
26-01-2015,01:00,89.80650,R,ugm-3
26-01-2015,02:00,,,
26-01-2015,03:00,90.25553,R,ugm-3
26-01-2015,04:00,89.80650,R,ugm-3
26-01-2015,05:00,87.61123,R,ugm-3
26-01-2015,06:00,84.96693,R,ugm-3
26-01-2015,07:00,88.60908,R,ugm-3
26-01-2015,08:00,89.65682,R,ugm-3
26-01-2015,09:00,88.60908,R,ugm-3
26-01-2015,10:00,87.51145,R,ugm-3
26-01-2015,11:00,87.01252,R,ugm-3
26-01-2015,12:00,86.71317,R,ugm-3
26-01-2015,13:00,85.56564,R,ugm-3
26-01-2015,14:00,84.61768,R,ugm-3
26-01-2015,15:00,83.66972,R,ugm-3
26-01-2015,16:00,82.97123,R,ugm-3
26-01-2015,17:00,82.87144,R,ugm-3
26-01-2015,18:00,83.02112,R,ugm-3
26-01-2015,19:00,84.06886,R,ugm-3
26-01-2015,20:00,82.77166,R,ugm-3
26-01-2015,21:00,82.72177,R,ugm-3
26-01-2015,22:00,83.52005,R,ugm-3
26-01-2015,23:00,83.96908,R,ugm-3
26-01-2015,24:00,84.41811,R,ugm-3
27-01-2015,01:00,83.15417,R,ugm-3
27-01-2015,02:00,82.08979,R,ugm-3
27-01-2015,03:00,81.92349,R,ugm-3
27-01-2015,04:00,81.22499,R,ugm-3
27-01-2015,05:00,82.27273,R,ugm-3
27-01-2015,06:00,83.42026,R,ugm-3
27-01-2015,07:00,83.02112,R,ugm-3
27-01-2015,08:00,83.32048,R,ugm-3
27-01-2015,09:00,83.61983,R,ugm-3
27-01-2015,10:00,82.42241,R,ugm-3
27-01-2015,11:00,84.01897,R,ugm-3
27-01-2015,12:00,84.11876,R,ugm-3
27-01-2015,13:00,83.56994,R,ugm-3
27-01-2015,14:00,83.86929,R,ugm-3
27-01-2015,15:00,82.92134,R,ugm-3
27-01-2015,16:00,83.42026,R,ugm-3
27-01-2015,17:00,85.61553,R,ugm-3
27-01-2015,18:00,85.86499,R,ugm-3
27-01-2015,19:00,84.66757,R,ugm-3
27-01-2015,20:00,83.71962,R,ugm-3
27-01-2015,21:00,84.86714,R,ugm-3
27-01-2015,22:00,84.41811,R,ugm-3
27-01-2015,23:00,81.82370,R,ugm-3
27-01-2015,24:00,79.77811,R,ugm-3
28-01-2015,01:00,82.75503,R,ugm-3
28-01-2015,02:00,,,
28-01-2015,03:00,86.76306,R,ugm-3
28-01-2015,04:00,88.80865,R,ugm-3
28-01-2015,05:00,88.35962,R,ugm-3
28-01-2015,06:00,87.21209,R,ugm-3
28-01-2015,07:00,83.02112,R,ugm-3
28-01-2015,08:00,79.97768,R,ugm-3
28-01-2015,09:00,78.78026,R,ugm-3
28-01-2015,10:00,89.10801,R,ugm-3
28-01-2015,11:00,91.75231,R,ugm-3
28-01-2015,12:00,98.28823,R,ugm-3
28-01-2015,13:00,87.36177,R,ugm-3
28-01-2015,14:00,78.63058,R,ugm-3
28-01-2015,15:00,80.37682,R,ugm-3
28-01-2015,16:00,83.17080,R,ugm-3
28-01-2015,17:00,83.27058,R,ugm-3
28-01-2015,18:00,84.21854,R,ugm-3
28-01-2015,19:00,84.86714,R,ugm-3
28-01-2015,20:00,85.16650,R,ugm-3
28-01-2015,21:00,84.21854,R,ugm-3
28-01-2015,22:00,83.91919,R,ugm-3
28-01-2015,23:00,83.76951,R,ugm-3
28-01-2015,24:00,84.41811,R,ugm-3
29-01-2015,01:00,83.48678,R,ugm-3
29-01-2015,02:00,,,
29-01-2015,03:00,80.52650,R,ugm-3
29-01-2015,04:00,80.72607,R,ugm-3
29-01-2015,05:00,81.92349,R,ugm-3
29-01-2015,06:00,81.77381,R,ugm-3
29-01-2015,07:00,80.17725,R,ugm-3
29-01-2015,08:00,80.72607,R,ugm-3
29-01-2015,09:00,81.87359,R,ugm-3
29-01-2015,10:00,82.02327,R,ugm-3
29-01-2015,11:00,82.77166,R,ugm-3
29-01-2015,12:00,82.77166,R,ugm-3
29-01-2015,13:00,82.32263,R,ugm-3
29-01-2015,14:00,81.72392,R,ugm-3
29-01-2015,15:00,81.77381,R,ugm-3
29-01-2015,16:00,81.82370,R,ugm-3
29-01-2015,17:00,81.17510,R,ugm-3
29-01-2015,18:00,81.22499,R,ugm-3
29-01-2015,19:00,81.32478,R,ugm-3
29-01-2015,20:00,80.57639,R,ugm-3
29-01-2015,21:00,80.92564,R,ugm-3
29-01-2015,22:00,80.62628,R,ugm-3
29-01-2015,23:00,81.27488,R,ugm-3
29-01-2015,24:00,80.07746,R,ugm-3
30-01-2015,01:00,78.76363,R,ugm-3
30-01-2015,02:00,,,
30-01-2015,03:00,77.18370,R,ugm-3
30-01-2015,04:00,77.63273,R,ugm-3
30-01-2015,05:00,77.78241,R,ugm-3
30-01-2015,06:00,79.82800,R,ugm-3
30-01-2015,07:00,80.42671,R,ugm-3
30-01-2015,08:00,80.02757,R,ugm-3
30-01-2015,09:00,81.92349,R,ugm-3
30-01-2015,10:00,82.42241,R,ugm-3
30-01-2015,11:00,78.78026,R,ugm-3
30-01-2015,12:00,74.19015,R,ugm-3
30-01-2015,13:00,73.24219,R,ugm-3
30-01-2015,14:00,73.34198,R,ugm-3
30-01-2015,15:00,67.55445,R,ugm-3
30-01-2015,16:00,66.25724,R,ugm-3
30-01-2015,17:00,68.40262,R,ugm-3
30-01-2015,18:00,70.79746,R,ugm-3
30-01-2015,19:00,70.49810,R,ugm-3
30-01-2015,20:00,70.74757,R,ugm-3